| time (UTC) | temp C | wind direction | speed KPH | gust KPH | rain 1hr cm | rain 24hr cm | rain mn cm | humidity % | barometer mb |
| 20260509234521 | 6 | 135 | 0.0 | 0.0 | 0.00 | 0.00 | 0.00 | 92 | 1016.1 |
| 20260509233016 | 6 | 135 | 0.0 | 0.0 | 0.00 | 0.00 | 0.00 | 92 | 1016.3 |
| 20260509231513 | 6 | 135 | 0.0 | 0.0 | 0.00 | 0.00 | 0.00 | 92 | 1016.4 |
| 20260509230011 | 6 | 135 | 0.0 | 0.0 | 0.00 | 0.00 | 0.00 | 91 | 1016.6 |
| 20260509224509 | 7 | 135 | 0.0 | 0.0 | 0.00 | 0.00 | 0.00 | 91 | 1016.7 |
| 20260509223007 | 7 | 135 | 0.0 | 0.0 | 0.00 | 0.00 | 0.00 | 90 | 1016.7 |
| 20260509221504 | 7 | 135 | 0.0 | 0.0 | 0.00 | 0.00 | 0.00 | 89 | 1016.7 |
| 20260509220001 | 7 | 135 | 0.0 | 0.0 | 0.00 | 0.00 | 0.00 | 88 | 1016.8 |
| 20260509214609 | 8 | 135 | 0.0 | 0.0 | 0.00 | 0.00 | 0.00 | 87 | 1016.8 |
| 20260509213057 | 8 | 135 | 0.0 | 0.0 | 0.00 | 0.00 | 0.00 | 87 | 1016.9 |
| 20260509211559 | 8 | 135 | 0.0 | 0.0 | 0.00 | 0.00 | 0.00 | 86 | 1016.7 |
| 20260509210113 | 8 | 135 | 0.0 | 0.0 | 0.00 | 0.00 | 0.00 | 86 | 1016.9 |
| 20260509204558 | 9 | 135 | 0.0 | 1.6 | 0.00 | 0.00 | 0.00 | 84 | 1016.9 |
| 20260509203055 | 10 | 135 | 0.0 | 3.2 | 0.00 | 0.00 | 0.00 | 82 | 1017.0 |
| 20260509201559 | 10 | 135 | 0.0 | 1.6 | 0.00 | 0.00 | 0.00 | 80 | 1017.0 |
| 20260509194552 | 11 | 135 | 0.0 | 1.6 | 0.00 | 0.00 | 0.00 | 77 | 1017.0 |
| 20260509193052 | 12 | 135 | 0.0 | 1.6 | 0.00 | 0.00 | 0.00 | 72 | 1016.8 |
| 20260509191556 | 13 | 135 | 0.0 | 1.6 | 0.00 | 0.00 | 0.00 | 70 | 1016.8 |
| 20260509190105 | 13 | 135 | 1.6 | 4.8 | 0.00 | 0.00 | 0.00 | 67 | 1016.7 |
| 20260509184551 | 13 | 133 | 1.6 | 4.8 | 0.00 | 0.00 | 0.00 | 66 | 1016.5 |
| 20260509183049 | 14 | 133 | 1.6 | 4.8 | 0.00 | 0.00 | 0.00 | 64 | 1016.4 |
| 20260509181550 | 14 | 133 | 1.6 | 4.8 | 0.00 | 0.00 | 0.00 | 62 | 1016.5 |
| 20260509180052 | 15 | 133 | 1.6 | 4.8 | 0.00 | 0.00 | 0.00 | 61 | 1016.6 |
| 20260509174546 | 15 | 133 | 3.2 | 8.0 | 0.00 | 0.00 | 0.00 | 59 | 1016.6 |
| 20260509173048 | 15 | 161 | 4.8 | 17.7 | 0.00 | 0.00 | 0.00 | 57 | 1016.5 |
| 20260509171547 | 15 | 91 | 6.4 | 17.7 | 0.00 | 0.00 | 0.00 | 55 | 1016.6 |
| 20260509170044 | 15 | 194 | 1.6 | 9.7 | 0.00 | 0.00 | 0.00 | 54 | 1016.7 |
| 20260509164550 | 15 | 85 | 3.2 | 9.7 | 0.00 | 0.00 | 0.00 | 57 | 1016.8 |
| 20260509163042 | 15 | 84 | 4.8 | 11.3 | 0.00 | 0.00 | 0.00 | 57 | 1016.9 |
| 20260509161541 | 15 | 136 | 4.8 | 11.3 | 0.00 | 0.00 | 0.00 | 56 | 1017.1 |
| 20260509160038 | 16 | 162 | 1.6 | 8.0 | 0.00 | 0.00 | 0.00 | 55 | 1017.2 |
| 20260509154535 | 15 | 155 | 3.2 | 9.7 | 0.00 | 0.00 | 0.00 | 57 | 1017.4 |
| 20260509153033 | 15 | 323 | 1.6 | 6.4 | 0.00 | 0.00 | 0.00 | 55 | 1017.6 |
| 20260509151536 | 16 | 185 | 1.6 | 11.3 | 0.00 | 0.00 | 0.00 | 55 | 1017.7 |
| 20260509124552 | 15 | 103 | 3.2 | 9.7 | 0.00 | 0.00 | 0.00 | 55 | 1018.7 |
| 20260509123052 | 15 | 66 | 1.6 | 4.8 | 0.00 | 0.00 | 0.00 | 56 | 1018.9 |
| 20260509121552 | 14 | 18 | 1.6 | 8.0 | 0.00 | 0.00 | 0.00 | 57 | 1019.0 |
| 20260509120048 | 14 | 74 | 4.8 | 8.0 | 0.00 | 0.00 | 0.00 | 58 | 1019.1 |
| 20260509114548 | 14 | 77 | 3.2 | 11.3 | 0.00 | 0.00 | 0.00 | 56 | 1019.2 |
| 20260509113052 | 14 | 146 | 1.6 | 11.3 | 0.00 | 0.00 | 0.00 | 55 | 1019.2 |
| 20260509111547 | 14 | 179 | 4.8 | 9.7 | 0.00 | 0.00 | 0.00 | 55 | 1019.1 |
| 20260509110047 | 14 | 57 | 1.6 | 8.0 | 0.00 | 0.00 | 0.00 | 55 | 1019.2 |
| 20260509104546 | 14 | 40 | 3.2 | 8.0 | 0.00 | 0.00 | 0.00 | 55 | 1019.3 |
| 20260509103047 | 14 | 34 | 4.8 | 14.5 | 0.00 | 0.00 | 0.00 | 54 | 1019.3 |
| 20260509101551 | 14 | 76 | 8.0 | 12.9 | 0.00 | 0.00 | 0.00 | 55 | 1019.3 |
| 20260509100043 | 13 | 101 | 3.2 | 17.7 | 0.00 | 0.00 | 0.00 | 53 | 1019.4 |
| 20260509094544 | 14 | 156 | 6.4 | 14.5 | 0.00 | 0.03 | 0.00 | 52 | 1019.4 |
| 20260509093043 | 14 | 156 | 8.0 | 16.1 | 0.00 | 0.03 | 0.00 | 52 | 1019.4 |
| 20260509091539 | 14 | 216 | 1.6 | 9.7 | 0.00 | 0.03 | 0.00 | 54 | 1019.4 |
| 20260509090036 | 13 | 133 | 3.2 | 6.4 | 0.00 | 0.03 | 0.00 | 55 | 1019.5 |
| 20260509084532 | 12 | 115 | 1.6 | 4.8 | 0.00 | 0.03 | 0.00 | 62 | 1019.6 |
| 20260509083028 | 12 | 115 | 1.6 | 4.8 | 0.00 | 0.03 | 0.00 | 78 | 1019.6 |
| 20260509081532 | 11 | 115 | 3.2 | 6.4 | 0.00 | 0.03 | 0.00 | 81 | 1019.7 |
| 20260509080026 | 11 | 81 | 3.2 | 6.4 | 0.00 | 0.03 | 0.00 | 80 | 1019.6 |
| 20260509074524 | 12 | 92 | 4.8 | 9.7 | 0.00 | 0.03 | 0.00 | 78 | 1019.5 |
| 20260509073023 | 12 | 165 | 3.2 | 8.0 | 0.00 | 0.03 | 0.00 | 80 | 1019.5 |
| 20260509071520 | 11 | 48 | 0.0 | 3.2 | 0.00 | 0.03 | 0.00 | 82 | 1019.5 |
| 20260509070017 | 11 | 111 | 1.6 | 4.8 | 0.00 | 0.03 | 0.00 | 82 | 1019.5 |
| 20260509064514 | 10 | 111 | 0.0 | 6.4 | 0.00 | 0.03 | 0.00 | 84 | 1019.5 |
| 20260509063010 | 10 | 15 | 1.6 | 4.8 | 0.00 | 0.03 | 0.00 | 85 | 1019.4 |
| 20260509061508 | 10 | 16 | 1.6 | 6.4 | 0.00 | 0.03 | 0.00 | 86 | 1019.4 |
| 20260509060010 | 9 | 331 | 3.2 | 4.8 | 0.00 | 0.03 | 0.00 | 87 | 1019.4 |
| 20260509054507 | 9 | 331 | 1.6 | 4.8 | 0.00 | 0.03 | 0.00 | 89 | 1019.4 |
| 20260509053007 | 9 | 331 | 1.6 | 4.8 | 0.00 | 0.03 | 0.00 | 91 | 1019.4 |
| 20260509051506 | 8 | 330 | 1.6 | 4.8 | 0.00 | 0.03 | 0.00 | 91 | 1019.3 |
| 20260509050004 | 8 | 330 | 1.6 | 4.8 | 0.00 | 0.03 | 0.00 | 92 | 1019.2 |
| 20260509044504 | 8 | 330 | 1.6 | 4.8 | 0.00 | 0.03 | 0.00 | 92 | 1019.1 |
| 20260509043002 | 8 | 330 | 0.0 | 3.2 | 0.00 | 0.03 | 0.00 | 92 | 1019.0 |
| 20260509041503 | 8 | 330 | 0.0 | 0.0 | 0.00 | 0.03 | 0.00 | 92 | 1018.9 |
| 20260509040001 | 8 | 330 | 0.0 | 0.0 | 0.00 | 0.03 | 0.00 | 92 | 1019.0 |
| 20260509034504 | 8 | 330 | 0.0 | 4.8 | 0.00 | 0.03 | 0.00 | 92 | 1019.0 |
| 20260509033001 | 8 | 14 | 0.0 | 0.0 | 0.00 | 0.03 | 0.00 | 92 | 1019.1 |
| 20260509031600 | 8 | 14 | 0.0 | 0.0 | 0.00 | 0.03 | 0.00 | 93 | 1019.1 |
| 20260509030059 | 8 | 14 | 0.0 | 1.6 | 0.00 | 0.03 | 0.00 | 93 | 1019.1 |
| 20260509024558 | 8 | 14 | 1.6 | 4.8 | 0.00 | 0.03 | 0.00 | 93 | 1019.1 |
| 20260509023057 | 9 | 14 | 0.0 | 3.2 | 0.00 | 0.03 | 0.00 | 92 | 1019.1 |
| 20260509021555 | 9 | 14 | 0.0 | 4.8 | 0.00 | 0.03 | 0.00 | 92 | 1019.1 |
| 20260509020053 | 9 | 14 | 1.6 | 3.2 | 0.00 | 0.03 | 0.00 | 92 | 1019.1 |
| 20260509014551 | 9 | 14 | 0.0 | 3.2 | 0.00 | 0.03 | 0.00 | 91 | 1019.0 |
| 20260509013055 | 9 | 14 | 0.0 | 4.8 | 0.00 | 0.03 | 0.00 | 91 | 1019.0 |
| 20260509011548 | 9 | 14 | 1.6 | 3.2 | 0.00 | 0.03 | 0.00 | 89 | 1019.0 |
| 20260509010045 | 10 | 14 | 0.0 | 3.2 | 0.00 | 0.03 | 0.00 | 88 | 1018.9 |
| 20260509004556 | 10 | 14 | 0.0 | 1.6 | 0.00 | 0.03 | 0.00 | 87 | 1018.8 |
| 20260509003044 | 10 | 14 | 0.0 | 3.2 | 0.00 | 0.03 | 0.00 | 86 | 1018.9 |
| 20260509001550 | 10 | 15 | 0.0 | 0.0 | 0.00 | 0.03 | 0.00 | 85 | 1019.0 |
| 20260509000043 | 10 | 15 | 1.6 | 4.8 | 0.00 | 0.03 | 0.00 | 86 | 1019.1 |